Weather reports worldwide

Advertisment
S. Maria Di Leuca, Italy (16360): temperature & dewpoint: 08.10.2019 14:00:00 - 14.10.2019 14:00:00 (CEST)S. Maria Di Leuca, Italy (16360): wind speed: 08.10.2019 14:00:00 - 14.10.2019 14:00:00 (CEST)S. Maria Di Leuca, Italy (16360): wind direction: 08.10.2019 14:00:00 - 14.10.2019 14:00:00 (CEST)S. Maria Di Leuca, Italy (16360): reduced air pressure: 08.10.2019 14:00:00 - 14.10.2019 14:00:00 (CEST)S. Maria Di Leuca, Italy (16360): visibility: 08.10.2019 14:00:00 - 14.10.2019 14:00:00 (CEST)S. Maria Di Leuca, Italy (16360): sunshine duration: 08.10.2019 14:00:00 - 14.10.2019 14:00:00 (CEST)
Date & Time tt [°C] td [°C] ff [km/h] ff [kn] dd ppp [hPa] vv [km] sd [min]
14.10.2019 14:00:00 - - - - - - - -
14.10.2019 13:00:00 23,4 18,7 11 6 WSW 1021,1 10 60
14.10.2019 12:00:00 23,2 14,2 9 5 NNW 1021,3 10 60
14.10.2019 11:00:00 23,0 16,1 13 7 N 1021,7 10 60
14.10.2019 10:00:00 21,2 17,0 15 8 NNE 1021,7 10 48
14.10.2019 09:00:00 20,0 18,0 13 7 NNE 1021,6 10 0
14.10.2019 08:00:00 19,2 17,4 13 7 N 1021,5 10 0
14.10.2019 07:00:00 - - - - - - - -
14.10.2019 06:00:00 - - - - - - - -
14.10.2019 05:00:00 - - - - - - - -
14.10.2019 04:00:00 - - - - - - - -
14.10.2019 03:00:00 - - - - - - - -
14.10.2019 02:00:00 - - - - - - - -
14.10.2019 01:00:00 - - - - - - - -
14.10.2019 00:00:00 - - - - - - - -
13.10.2019 23:00:00 - - - - - - - -
13.10.2019 22:00:00 - - - - - - - -
13.10.2019 21:00:00 - - - - - - - -
13.10.2019 20:00:00 21,6 14,3 9 5 N 1022,1 10 -
13.10.2019 19:00:00 22,0 19,0 4 2 NNW 1022,1 10 54
13.10.2019 18:00:00 22,2 19,0 4 2 SW 1021,1 10 60
13.10.2019 17:00:00 23,8 19,5 5 3 WSW 1021,1 10 60
13.10.2019 16:00:00 23,8 18,5 8 4 WSW 1021,1 10 60
13.10.2019 15:00:00 23,8 18,0 9 5 WSW 1021,6 10 60
13.10.2019 14:00:00 23,4 17,8 9 5 WSW 1022,1 10 60
13.10.2019 13:00:00 24,8 14,6 15 8 NE 1022,1 10 60
13.10.2019 12:00:00 24,0 15,0 13 7 NE 1022,2 10 60
13.10.2019 11:00:00 23,0 13,5 16 9 NNE 1022,2 10 60
13.10.2019 10:00:00 21,0 15,3 16 9 NNE 1022,3 10 42
13.10.2019 09:00:00 19,0 16,4 18 10 NNE 1022,4 10 0
13.10.2019 08:00:00 18,4 15,3 15 8 NNE 1022,1 10 0
13.10.2019 07:00:00 - - - - - - - -
13.10.2019 06:00:00 - - - - - - - -
13.10.2019 05:00:00 - - - - - - - -
13.10.2019 04:00:00 - - - - - - - -
13.10.2019 03:00:00 - - - - - - - -
13.10.2019 02:00:00 - - - - - - - -
13.10.2019 01:00:00 - - - - - - - -
13.10.2019 00:00:00 - - - - - - - -
12.10.2019 23:00:00 - - - - - - - -
12.10.2019 22:00:00 - - - - - - - -
12.10.2019 21:00:00 - - - - - - - -
12.10.2019 20:00:00 20,2 18,2 9 5 N 1022,7 15 -
12.10.2019 19:00:00 21,2 19,1 8 4 NNE 1022,5 15 0
12.10.2019 18:00:00 22,2 20,3 4 2 SSE 1022,3 20 60
12.10.2019 17:00:00 23,6 20,3 5 3 S 1022,4 20 60
12.10.2019 16:00:00 23,2 21,5 8 4 WSW 1022,5 20 60
12.10.2019 15:00:00 23,4 21,1 13 7 WSW 1022,4 20 60
12.10.2019 14:00:00 24,6 20,3 4 2 N 1022,5 20 60
12.10.2019 13:00:00 23,2 21,1 13 7 SSW 1023,0 20 60
12.10.2019 12:00:00 23,8 19,7 5 3 NE 1022,9 18 60
12.10.2019 11:00:00 23,2 18,7 13 7 NNE 1022,7 15 60
12.10.2019 10:00:00 21,4 18,4 16 9 NNE 1022,6 15 60
12.10.2019 09:00:00 19,2 16,1 22 12 NNE 1022,1 10 60
12.10.2019 08:00:00 18,2 15,3 21 11 NNE 1021,8 6 0
12.10.2019 07:00:00 - - - - - - - -
12.10.2019 06:00:00 - - - - - - - -
12.10.2019 05:00:00 - - - - - - - -
12.10.2019 04:00:00 - - - - - - - -
12.10.2019 03:00:00 - - - - - - - -
12.10.2019 02:00:00 - - - - - - - -
12.10.2019 01:00:00 - - - - - - - -
12.10.2019 00:00:00 - - - - - - - -
11.10.2019 23:00:00 - - - - - - - -
11.10.2019 22:00:00 - - - - - - - -
11.10.2019 21:00:00 - - - - - - - -
11.10.2019 20:00:00 21,4 20,2 11 6 N 1020,1 10 -
11.10.2019 19:00:00 22,0 21,2 5 3 NW 1020,0 10 0
11.10.2019 18:00:00 22,8 21,4 4 2 E 1019,5 12 48
11.10.2019 17:00:00 23,6 22,4 8 4 ENE 1019,5 10 60
11.10.2019 16:00:00 24,8 22,5 8 4 ENE 1019,5 15 60
11.10.2019 15:00:00 25,0 21,1 4 2 S 1020,0 15 36
11.10.2019 14:00:00 25,0 21,3 4 2 E 1020,0 15 0
11.10.2019 13:00:00 23,0 20,3 5 3 NNE 1020,1 15 48
11.10.2019 12:00:00 23,4 20,3 8 4 NE 1020,1 15 60
11.10.2019 11:00:00 23,4 20,5 9 5 NNE 1020,0 12 60
11.10.2019 10:00:00 20,6 18,4 16 9 NNE 1019,7 10 60
11.10.2019 09:00:00 20,2 17,2 18 10 NNE 1019,2 10 42
11.10.2019 08:00:00 19,4 16,4 15 8 NNE 1018,5 10 0
11.10.2019 07:00:00 - - - - - - - -
11.10.2019 06:00:00 - - - - - - - -
11.10.2019 05:00:00 - - - - - - - -
11.10.2019 04:00:00 - - - - - - - -
11.10.2019 03:00:00 - - - - - - - -
11.10.2019 02:00:00 - - - - - - - -
11.10.2019 01:00:00 - - - - - - - -
11.10.2019 00:00:00 - - - - - - - -
10.10.2019 23:00:00 - - - - - - - -
10.10.2019 22:00:00 - - - - - - - -
10.10.2019 21:00:00 - - - - - - - -
10.10.2019 20:00:00 21,4 18,6 18 10 SSE 1016,0 10 -
10.10.2019 19:00:00 21,2 19,3 18 10 SE 1016,0 10 0
10.10.2019 18:00:00 21,8 20,6 8 4 SE 1016,0 12 6
10.10.2019 17:00:00 22,0 20,8 9 5 SSE 1015,3 12 12
10.10.2019 16:00:00 22,2 20,1 11 6 S 1015,3 12 6
10.10.2019 15:00:00 22,2 21,4 21 11 SSW 1015,8 12 0
10.10.2019 14:00:00 22,6 21,8 16 9 SSE 1016,4 15 6
10.10.2019 13:00:00 23,2 22,4 9 5 SE 1016,8 20 36
10.10.2019 12:00:00 23,2 21,5 11 6 SE 1017,0 20 48
10.10.2019 11:00:00 23,0 21,3 13 7 SE 1017,2 20 54
10.10.2019 10:00:00 22,4 20,9 13 7 SE 1017,2 20 18
10.10.2019 09:00:00 20,6 19,2 9 5 SSE 1017,1 20 0
10.10.2019 08:00:00 20,6 18,9 15 8 SE 1017,0 20 0
10.10.2019 07:00:00 - - - - - - - -
10.10.2019 06:00:00 - - - - - - - -
10.10.2019 05:00:00 - - - - - - - -
10.10.2019 04:00:00 - - - - - - - -
10.10.2019 03:00:00 - - - - - - - -
10.10.2019 02:00:00 - - - - - - - -
10.10.2019 01:00:00 - - - - - - - -
10.10.2019 00:00:00 - - - - - - - -
09.10.2019 23:00:00 - - - - - - - -
09.10.2019 22:00:00 - - - - - - - -
09.10.2019 21:00:00 - - - - - - - -
09.10.2019 20:00:00 21,0 19,8 8 4 SSE 1018,5 12 -
09.10.2019 19:00:00 21,0 19,8 8 4 S 1018,5 15 0
09.10.2019 18:00:00 21,4 20,2 11 6 E 1018,6 15 48
09.10.2019 17:00:00 22,2 21,2 11 6 S 1019,0 20 60
09.10.2019 16:00:00 22,4 21,2 15 8 SSE 1019,2 20 60
09.10.2019 15:00:00 23,8 21,7 15 8 SE 1019,7 20 60
09.10.2019 14:00:00 23,4 21,5 13 7 SE 1020,3 20 60
09.10.2019 13:00:00 23,2 19,4 13 7 SE 1020,9 20 60
09.10.2019 12:00:00 22,8 18,4 11 6 SE 1021,1 20 60
09.10.2019 11:00:00 22,6 20,0 9 5 SE 1021,0 20 60
09.10.2019 10:00:00 22,0 19,0 13 7 ESE 1020,9 20 12
09.10.2019 09:00:00 21,2 18,8 9 5 E 1020,1 20 48
09.10.2019 08:00:00 18,0 16,7 9 5 NNE 1020,2 20 24
09.10.2019 07:00:00 - - - - - - - -
09.10.2019 06:00:00 - - - - - - - -
09.10.2019 05:00:00 - - - - - - - -
09.10.2019 04:00:00 - - - - - - - -
09.10.2019 03:00:00 - - - - - - - -
09.10.2019 02:00:00 - - - - - - - -
09.10.2019 01:00:00 - - - - - - - -
09.10.2019 00:00:00 - - - - - - - -
08.10.2019 23:00:00 - - - - - - - -
08.10.2019 22:00:00 - - - - - - - -
08.10.2019 21:00:00 - - - - - - - -
08.10.2019 20:00:00 18,4 12,2 21 11 NNE 1018,2 10 -
08.10.2019 19:00:00 18,8 12,8 18 10 NNE 1017,2 10 54
08.10.2019 18:00:00 19,6 11,9 21 11 NNE 1016,3 10 60
08.10.2019 17:00:00 20,6 10,1 21 11 NNE 1015,6 10 60
08.10.2019 16:00:00 21,4 10,5 21 11 NE 1015,1 10 60
08.10.2019 15:00:00 21,2 9,5 22 12 NE 1015,0 10 60
08.10.2019 14:00:00 21,8 10,3 22 12 NE 1014,6 10 36

tt = temperature
td = dewpoint
ff = wind speed
dd = wind direction
ppp = reduced air pressure
vv = visibility
sd = sunshine duration

Next stations